Stations météo

réclame
Mon MeteoGroup
Le Havre/Octeville, France (7046): Température de l'air & dewpoint: 08.08.2018 23:00:00 - 14.08.2018 23:00:00 (CEST)Le Havre/Octeville, France (7046): Vitesse du vent & gusts: 08.08.2018 23:00:00 - 14.08.2018 23:00:00 (CEST)Le Havre/Octeville, France (7046): Direction du vent: 08.08.2018 23:00:00 - 14.08.2018 23:00:00 (CEST)Le Havre/Octeville, France (7046): reduced air pressure: 08.08.2018 23:00:00 - 14.08.2018 23:00:00 (CEST)Le Havre/Octeville, France (7046): visibility: 08.08.2018 23:00:00 - 14.08.2018 23:00:00 (CEST)Le Havre/Octeville, France (7046): Quantités de précipitations: 08.08.2018 23:00:00 - 14.08.2018 23:00:00 (CEST)
Date & Time tt [°C] td [°C] ff [km/h] ff [knt] fx [km/h] fx [knt] dd ppp [hPa] vv [km] rr [mm]
14.08.2018 23:00:00 18,6 15,8 25 14 39 21 W 1020,9 20 0,0
14.08.2018 22:00:00 18,8 15,5 22 12 37 20 WSW 1020,6 20 0,0
14.08.2018 21:00:00 18,8 15,3 22 12 35 19 W 1020,1 20 0,0
14.08.2018 20:00:00 19,5 15,4 18 10 30 16 W 1019,8 20 0,0
14.08.2018 19:00:00 20,2 15,0 15 8 21 12 W 1020,1 20 0,0
14.08.2018 18:00:00 20,3 14,6 10 5 21 12 W 1020,2 20 0,0
14.08.2018 17:00:00 19,8 15,2 15 8 31 17 W 1020,3 20 0,0
14.08.2018 16:00:00 19,8 14,6 21 11 29 16 W 1020,2 20 0,0
14.08.2018 15:00:00 19,4 15,3 16 9 29 16 W 1020,1 20 0,0
14.08.2018 14:00:00 19,7 15,1 18 10 32 18 W 1019,9 20 0,0
14.08.2018 13:00:00 19,5 15,2 22 12 32 17 W 1019,5 20 0,0
14.08.2018 12:00:00 18,9 14,8 19 10 27 15 W 1019,2 20 0,0
14.08.2018 11:00:00 18,7 15,2 16 9 28 15 W 1018,6 20 0,0
14.08.2018 10:00:00 17,9 14,8 16 9 24 13 W 1018,3 20 0,0
14.08.2018 09:00:00 17,8 14,9 14 8 23 13 WNW 1017,7 20 0,0
14.08.2018 08:00:00 17,3 14,6 14 7 26 14 WNW 1017,2 20 0,0
14.08.2018 07:00:00 17,1 14,7 16 9 26 14 NW 1016,3 20 0,0
14.08.2018 06:00:00 17,5 14,9 14 7 30 16 NW 1015,7 20 0,0
14.08.2018 05:00:00 17,7 14,8 19 10 37 20 NW 1015,4 20 0,0
14.08.2018 04:00:00 18,0 14,9 23 12 40 21 NW 1014,9 20 0,0
14.08.2018 03:00:00 18,1 15,0 20 11 35 19 W 1014,5 20 0,0
14.08.2018 02:00:00 17,8 15,6 19 11 36 20 W 1014,3 20 0,0
14.08.2018 01:00:00 17,8 15,6 22 12 37 20 W 1014,0 20 0,0
14.08.2018 00:00:00 17,9 15,5 24 13 37 20 WSW 1013,5 20 0,0
13.08.2018 23:00:00 18,2 14,9 24 13 42 23 WSW 1013,1 20 0,0
13.08.2018 22:00:00 18,6 13,9 22 12 35 19 WSW 1012,7 20 0,0
13.08.2018 21:00:00 18,2 14,9 12 6 27 15 W 1012,3 20 0,0
13.08.2018 20:00:00 18,9 15,0 18 10 27 15 W 1011,5 20 0,0
13.08.2018 19:00:00 19,0 15,5 18 10 36 19 WNW 1011,4 20 0,0
13.08.2018 18:00:00 19,7 15,3 21 11 33 18 W 1011,1 20 0,0
13.08.2018 17:00:00 18,9 15,4 19 10 32 17 W 1011,1 20 0,0
13.08.2018 16:00:00 18,0 14,9 19 10 34 19 W 1011,1 20 0,0
13.08.2018 15:00:00 18,9 15,2 22 12 33 18 W 1010,7 20 0,0
13.08.2018 14:00:00 18,4 14,5 22 12 37 20 W 1010,5 20 0,0
13.08.2018 13:00:00 18,4 14,9 23 13 44 24 W 1010,0 20 0,0
13.08.2018 12:00:00 17,8 15,1 26 14 46 25 W 1009,6 20 0,0
13.08.2018 11:00:00 17,3 15,1 29 16 48 26 W 1009,0 44 0,2
13.08.2018 10:00:00 16,9 15,6 26 14 42 23 W 1008,5 20 1,8
13.08.2018 09:00:00 16,7 15,4 24 13 41 22 SW 1007,9 36 0,2
13.08.2018 08:00:00 15,9 15,1 23 12 37 20 SW 1007,7 4,7 3,6
13.08.2018 07:00:00 16,5 14,9 19 10 27 14 SW 1007,4 12 0,2
13.08.2018 06:00:00 16,3 15,0 16 9 42 23 SSW 1007,4 31 0,2
13.08.2018 05:00:00 16,6 14,6 14 8 23 12 WSW 1007,3 4,0 0,4
13.08.2018 04:00:00 17,2 14,3 13 7 25 14 WSW 1007,5 44 0,0
13.08.2018 03:00:00 17,4 15,2 18 10 27 15 WSW 1007,7 40 0,2
13.08.2018 02:00:00 17,4 16,6 14 8 23 12 SW 1007,8 9 1,2
13.08.2018 01:00:00 17,1 15,8 12 6 34 19 SW 1008,2 7 4,2
13.08.2018 00:00:00 18,5 15,2 16 9 29 15 SSW 1008,5 20 0,0
12.08.2018 23:00:00 18,6 16,0 11 6 19 11 S 1008,7 33 0,0
12.08.2018 22:00:00 18,8 15,8 14 7 29 16 S 1008,8 34 0,0
12.08.2018 21:00:00 18,9 15,6 10 5 17 9 SSE 1008,4 36 0,2
12.08.2018 20:00:00 18,9 15,9 10 5 19 11 SSE 1008,7 32 0,0
12.08.2018 19:00:00 18,6 15,7 9 5 18 10 S 1009,5 14 0,6
12.08.2018 18:00:00 18,8 15,3 6 3 11 6 S 1010,5 10 1,8
12.08.2018 17:00:00 20,2 15,0 10 5 16 9 WNW 1011,1 34 0,0
12.08.2018 16:00:00 20,5 15,5 9 5 30 16 W 1011,5 13 0,2
12.08.2018 15:00:00 23,4 13,0 16 9 31 17 S 1011,9 60 0,0
12.08.2018 14:00:00 24,1 11,8 17 9 32 17 SSE 1011,6 50 0,0
12.08.2018 13:00:00 24,0 11,7 17 9 32 17 S 1012,3 28 0,0
12.08.2018 12:00:00 22,8 12,1 15 8 31 17 S 1012,9 28 0,0
12.08.2018 11:00:00 22,5 11,2 19 10 34 18 S 1013,0 28 0,0
12.08.2018 10:00:00 21,2 11,2 13 7 23 12 SE 1013,6 52 0,0
12.08.2018 09:00:00 20,1 11,0 13 7 28 15 SE 1014,1 48 0,0
12.08.2018 08:00:00 19,6 11,1 16 9 29 16 SSE 1014,6 47 0,0
12.08.2018 07:00:00 18,8 11,8 14 7 23 13 SSE 1015,1 56 0,0
12.08.2018 06:00:00 18,5 12,7 10 5 16 9 SSE 1015,5 53 0,0
12.08.2018 05:00:00 18,7 12,7 9 5 15 8 SSE 1016,1 53 0,0
12.08.2018 04:00:00 19,0 12,7 10 5 18 10 S 1016,8 57 0,0
12.08.2018 03:00:00 19,9 12,4 10 5 21 11 SSE 1017,3 59 0,0
12.08.2018 02:00:00 20,1 12,6 12 7 24 13 SSE 1018,0 60 0,0
12.08.2018 01:00:00 20,4 12,4 12 6 19 10 SSE 1018,7 58 0,0
12.08.2018 00:00:00 20,9 12,6 11 6 20 11 SSE 1019,2 59 0,0
11.08.2018 23:00:00 21,7 13,1 9 5 16 9 SE 1019,9 52 0,0
11.08.2018 22:00:00 21,8 12,9 7 4 19 10 SE 1020,2 54 0,0
11.08.2018 21:00:00 21,8 12,6 6 3 8 5 SSE 1020,5 58 0,0
11.08.2018 20:00:00 21,3 13,5 2 1 9 5 W 1020,9 56 0,0
11.08.2018 19:00:00 20,9 14,3 4 2 16 9 NNW 1021,6 53 0,0
11.08.2018 18:00:00 21,5 13,7 8 5 15 8 WNW 1021,6 44 0,0
11.08.2018 17:00:00 22,3 13,1 9 5 19 10 W 1022,2 36 0,0
11.08.2018 16:00:00 22,3 13,6 10 6 19 11 WSW 1022,8 44 0,0
11.08.2018 15:00:00 21,4 13,3 10 5 20 11 SW 1023,4 20 0,0
11.08.2018 14:00:00 20,9 13,3 9 5 20 11 WSW 1023,7 59 0,0
11.08.2018 13:00:00 19,9 13,4 9 5 21 11 SW 1024,1 56 0,0
11.08.2018 12:00:00 18,4 13,5 11 6 21 11 SSW 1024,4 59 0,0
11.08.2018 11:00:00 17,9 13,8 11 6 21 11 WSW 1024,8 45 0,0
11.08.2018 10:00:00 16,8 13,7 16 8 23 12 SW 1024,8 34 0,2
11.08.2018 09:00:00 17,8 13,5 9 5 16 9 WSW 1024,5 17 0,0
11.08.2018 08:00:00 17,1 12,6 11 6 18 10 W 1024,3 50 0,0
11.08.2018 07:00:00 16,3 11,4 14 8 21 12 WNW 1024,1 51 0,0
11.08.2018 06:00:00 16,3 11,9 15 8 29 15 WNW 1023,9 47 0,0
11.08.2018 05:00:00 16,4 12,0 18 10 36 19 WNW 1023,7 50 0,0
11.08.2018 04:00:00 16,7 12,6 21 11 34 18 WNW 1023,3 60 0,0
11.08.2018 03:00:00 16,7 12,4 21 12 39 21 W 1023,3 55 0,0
11.08.2018 02:00:00 17,0 12,5 29 15 50 27 W 1023,5 53 0,0
11.08.2018 01:00:00 17,1 13,4 26 14 44 24 W 1023,5 44 0,0
11.08.2018 00:00:00 17,1 13,4 31 17 48 26 WSW 1023,3 45 0,0
10.08.2018 23:00:00 17,1 13,0 31 17 45 25 WSW 1023,0 49 0,0
10.08.2018 22:00:00 17,2 13,1 31 17 48 26 WSW 1022,6 51 0,0
10.08.2018 21:00:00 17,5 12,6 36 19 55 30 WSW 1022,3 28 0,0
10.08.2018 20:00:00 17,1 13,8 29 16 59 32 W 1022,1 30 0,0
10.08.2018 19:00:00 18,2 12,6 38 20 56 30 W 1021,7 37 0,0
10.08.2018 18:00:00 21,3 11,3 30 16 49 26 SW 1021,5 24 0,0
10.08.2018 17:00:00 20,6 11,0 29 16 48 26 WSW 1021,7 22 0,0
10.08.2018 16:00:00 21,3 9,8 28 15 46 25 SW 1021,8 21 0,0
10.08.2018 15:00:00 21,1 9,7 27 14 42 23 SSW 1022,0 20 0,0
10.08.2018 14:00:00 19,9 9,5 25 14 45 24 SSW 1022,1 28 0,0
10.08.2018 13:00:00 19,6 10,0 27 15 40 22 SSW 1022,2 33 0,0
10.08.2018 12:00:00 18,1 10,7 24 13 39 21 SSW 1022,5 19 0,0
10.08.2018 11:00:00 17,1 11,4 23 13 37 20 SSW 1022,5 41 0,0
10.08.2018 10:00:00 16,1 12,1 20 11 35 19 SSW 1022,7 50 0,0
10.08.2018 09:00:00 15,0 11,4 19 10 33 18 SSW 1022,3 23 0,0
10.08.2018 08:00:00 14,5 11,3 20 11 32 17 SSW 1021,8 24 0,0
10.08.2018 07:00:00 14,5 10,9 20 11 34 19 SSW 1021,5 51 0,0
10.08.2018 06:00:00 14,8 10,6 23 13 39 21 SSW 1021,3 60 0,0
10.08.2018 05:00:00 15,0 10,2 26 14 39 21 SSW 1021,2 60 0,0
10.08.2018 04:00:00 14,8 10,8 19 11 36 20 SSW 1021,3 59 0,0
10.08.2018 03:00:00 15,5 10,9 23 12 42 23 SW 1021,2 55 0,0
10.08.2018 02:00:00 15,6 11,0 24 13 40 22 SW 1021,0 53 0,0
10.08.2018 01:00:00 16,1 10,0 26 14 40 22 WSW 1020,5 60 0,0
10.08.2018 00:00:00 16,2 9,4 26 14 46 25 WSW 1020,0 60 0,0
09.08.2018 23:00:00 16,6 9,5 27 15 42 23 WSW 1019,6 60 0,0
09.08.2018 22:00:00 16,8 10,4 25 13 42 23 WSW 1018,9 60 0,0
09.08.2018 21:00:00 16,9 11,0 24 13 41 22 W 1018,2 52 0,0
09.08.2018 20:00:00 17,4 9,8 23 13 46 25 W 1017,6 53 0,0
09.08.2018 19:00:00 17,5 10,6 27 15 46 25 W 1016,9 23 0,0
09.08.2018 18:00:00 17,7 10,8 23 13 43 23 W 1016,1 24 0,0
09.08.2018 17:00:00 17,1 11,6 27 15 41 22 W 1015,6 20 0,0
09.08.2018 16:00:00 15,9 12,5 24 13 46 25 W 1015,0 43 1,0
09.08.2018 15:00:00 15,1 12,4 29 16 46 25 W 1015,0 15 1,4
09.08.2018 14:00:00 14,3 12,2 24 13 46 25 WNW 1014,1 4,7 1,5
09.08.2018 13:00:00 14,1 12,7 27 14 40 22 NNW 1012,9 4,3 0,4
09.08.2018 12:00:00 14,3 12,5 31 17 42 23 NNW 1012,1 27 1,0
09.08.2018 11:00:00 14,2 12,6 26 14 38 21 NNW 1012,0 3,8 2,2
09.08.2018 10:00:00 14,9 12,9 23 12 39 21 N 1012,1 6 2,0
09.08.2018 09:00:00 15,9 12,8 27 14 39 21 NNW 1011,7 19 0,2
09.08.2018 08:00:00 16,4 12,0 25 14 37 20 N 1011,9 47 0,0
09.08.2018 07:00:00 16,3 11,0 20 11 29 16 N 1011,9 53 0,0
09.08.2018 06:00:00 16,0 10,1 13 7 24 13 N 1012,4 10 0,0
09.08.2018 05:00:00 16,4 11,5 14 7 26 14 N 1013,0 60 0,0
09.08.2018 04:00:00 17,0 10,8 16 8 23 12 N 1013,3 60 0,0
09.08.2018 03:00:00 16,5 11,6 9 5 13 7 NNE 1013,5 60 0,0
09.08.2018 02:00:00 16,5 11,8 5 3 9 5 ENE 1014,4 60 0,0
09.08.2018 01:00:00 16,8 11,7 5 3 12 6 ENE 1015,2 60 0,0
09.08.2018 00:00:00 16,7 11,6 6 3 14 8 NNE 1015,3 60 0,0
08.08.2018 23:00:00 16,7 11,8 9 5 14 8 NNE 1015,2 57 0,0

tt = Température de l'air
td = dewpoint
ff = Vitesse du vent
fx = gusts
dd = Direction du vent
ppp = reduced air pressure
vv = visibility
rr = Quantités de précipitations

stations d'obs. à proximité